Location: Home
(42.5358°N, 72.7383°W)
Time: 21:44:59
(UTC-05:00)

Vanguard 2 Rocket - Pass Details

Date: 04 December 2021
Orbit: 554 x 3325 km, 32.9° (Epoch: 21 January)

Event Time Altitude Azimuth Distance (km) Brightness Sun altitude
Rises 23:24:23 0° 270° (W) 4,958 - -69.5°
Reaches altitude 10° 23:27:53 10° 258° (WSW) 4,347 - -69.7°
Maximum altitude 23:37:49 28° 207° (SSW) 3,993 - -69.8°
Drops below altitude 10° 23:51:35 10° 158° (SSE) 6,073 - -69.7°
Sets 23:57:51 0° 149° (SSE) 7,264 - -69.6°
